Regional Weather Roundup
Issued by NWS

Home | Current Version | Previous Version | Text Only | Print | Product List | Glossary Off
Versions: 1 2 3 4 5 6 7 8 9 10 11 12 13 14 15 16 17 18 19 20 21 22 23 24 25 26 27 28 29 30 31 32 33 34 35 36 37 38 39 40 41 42 43 44 45 46 47 48 49 50

000
ASUS45 KSLC 210610
RWRUT

UTAH REGIONAL WEATHER ROUNDUP
NATIONAL WEATHER SERVICE SALT LAKE CITY UT
1200 AM MDT THU AUG 21 2014

UTZ001>011-023>025-210700-

NORTHERN UTAH

CITY           SKY/WX    TMP DP  RH WIND       PRES   REMARKS
HILL AFB       CLOUDY    59  52  77 E16       30.04F
LOGAN          CLOUDY    61  55  81 S17       30.03S
OGDEN          CLOUDY    63  56  78 E12       30.02F
PROVO AIRPORT  MOCLDY    66  54  63 NW12      30.07R
SALT LAKE CITY CLOUDY    66  53  63 S6        30.03F
VERNAL         MOCLDY    59  53  80 SW3       30.10S
WENDOVER       CLOUDY    72  46  40 SE10      29.96S
HEBER CITY     CLOUDY    55  52  88 CALM      30.14R
WEST JORDAN    PTCLDY    64  57  77 W5        30.08S

$$

UTZ012>022-026-027-210700-

SOUTHERN UTAH

CITY           SKY/WX    TMP DP  RH WIND       PRES   REMARKS
BRYCE CANYON   PTCLDY    47  43  86 N3        30.28R
CEDAR CITY     CLEAR     62  44  51 SE7       30.14R
MILFORD        CLEAR     62  50  64 S9        30.07
MOAB/CYNLANDS  CLEAR     65  53  65 CALM      30.05R
PRICE          PTCLDY    59  50  72 NE7       30.13S
ST GEORGE      CLOUDY    73  54  49 E10       29.99S
KANAB            N/A     57  50  77 NW7       30.16S

$$

REGIONAL REPORTS     COLORADO/ARIZONA

CITY           SKY/WX    TMP DP  RH WIND       PRES   REMARKS
CRAIG, CO      PTCLDY    56  50  80 E7        30.15R
GRAND JUNCTION CLEAR     63  49  60 NW6       30.07R
RIFLE          PTCLDY    64  50  60 S7        30.13R
MONTROSE       MOCLDY    66  50  56 SE6       30.15R
CORTEZ         CLEAR     57  46  66 CALM      30.17S
PAGE, AZ       MOCLDY    72  49  44 CALM      30.07R
GRAND CANYON     N/A    N/A N/A N/A MISG        N/A
KINGMAN        CLOUDY    74  53  48 CALM      30.02R
FLAGSTAFF      PTCLDY    51  47  86 CALM      30.28S

$$

REGIONAL REPORTS    NEVADA/IDAHO/WYOMING

CITY           SKY/WX    TMP DP  RH WIND       PRES   REMARKS
LAS VEGAS, NV  CLEAR     82  52  35 S7        29.86S
ELY            PTCLDY    60  44  55 SW12      30.12S
ELKO           CLOUDY    72  40  31 E6        29.96S
POCATELLO, ID  CLOUDY    56  54  93 NW6       29.99R
BURLEY         CLOUDY    63  54  72 NW7       29.96R
EVANSTON, WY   RAIN      51  49  92 W9        30.25R FOG
ROCK SPRINGS   MOCLDY    53  45  74 N8        30.15F

$$



USA.gov is the U.S. government's official web portal to all federal, state and local government web resources and services.